Regional Weather Roundup
Issued by NWS Little Rock, AR

Home | Current Version | Previous Version | Graphics & Text | Print | Product List | Glossary On
Versions: 1 2 3 4 5 6 7 8 9 10 11 12 13 14 15 16 17 18 19 20 21 22 23 24 25 26 27 28 29 30 31 32 33 34 35 36 37 38 39 40 41 42 43 44 45 46 47 48 49 50
000
ASUS44 KLZK 201505
RWRLZK

WEATHER ROUNDUP FOR ARKANSAS
NATIONAL WEATHER SERVICE LITTLE ROCK AR
900 AM CST SAT DEC 20 2014

NOTE: "FAIR" INDICATES FEW OR NO CLOUDS BELOW 12,000 FEET WITH NO
SIGNIFICANT WEATHER AND/OR OBSTRUCTIONS TO VISIBILITY.

ARZ001-003-010-029-201600-
NORTHWEST ARKANSAS

CITY           SKY/WX    TMP DP  RH WIND       PRES   REMARKS
FAYETTEVILLE   CLOUDY    40  38  93 W3        30.24R
FORT SMITH     CLOUDY    42  39  89 E6        30.25F FOG
HARRISON       FOG       38  38 100 CALM      30.23R VSB<1/4
BENTONVILLE    CLOUDY    39  36  87 W5        30.24S
ROGERS         CLOUDY    39  37  92 W3        30.24R
SILOAM SPGS    CLOUDY    39  34  81 W3        30.25S
HIGHFILL       CLOUDY    40  38  93 SW5       30.23S
SPRINGDALE     CLOUDY    39  39 100 SW3       30.25R FOG
$$

ARZ004-005-016-201600-
NORTH CENTRAL ARKANSAS

CITY           SKY/WX    TMP DP  RH WIND       PRES   REMARKS
BATESVILLE     CLOUDY    39  34  81 E3        30.28S
FLIPPIN        CLOUDY    37  34  87 CALM      30.25R
MTN HOME       CLOUDY    37  36  96 CALM      30.25R FOG
$$

ARZ040-041-201600-
WEST CENTRAL ARKANSAS

CITY           SKY/WX    TMP DP  RH WIND       PRES   REMARKS
MENA             N/A     45  43  93 CALM      30.24R
MOUNT IDA      CLOUDY    43  39  86 CALM      30.23R
$$

ARZ009-017-025-026-028-201600-
NORTHEAST ARKANSAS

CITY           SKY/WX    TMP DP  RH WIND       PRES   REMARKS
CORNING        FAIR      39  34  81 E5        30.30R
JONESBORO      CLOUDY    39  36  89 E6        30.29R
NEWPORT        CLOUDY    38  36  92 NE3       30.30S
WALNUT RIDGE   CLOUDY    37  34  87 E3        30.30R
BLYTHEVILLE    CLOUDY    39  33  79 E6        30.29S
$$

ARZ022-023-033-042-044-201600-
CENTRAL ARKANSAS

CITY           SKY/WX    TMP DP  RH WIND       PRES   REMARKS
LITTLE ROCK    CLOUDY    41  34  76 E5        30.29R
N LITTLE ROCK  CLOUDY    39  37  92 NE6       30.29R
JACKSONVILLE   CLOUDY    40  35  84 NE3       30.28R
SEARCY         CLOUDY    40  35  83 NE6       30.30S
HOT SPRINGS    PTSUNNY   41  36  82 E3        30.27R
RUSSELLVILLE   CLOUDY    42  36  79 NE3       30.26S
CLINTON        PTSUNNY   41  36  81 CALM      30.29R HAZE
$$

ARZ036-201600-
EAST ARKANSAS

CITY           SKY/WX    TMP DP  RH WIND       PRES   REMARKS
WEST MEMPHIS   CLOUDY    40  34  79 E7        30.27S
$$

ARZ050-053-066-070-073-201600-
SOUTHWEST ARKANSAS

CITY           SKY/WX    TMP DP  RH WIND       PRES   REMARKS
ARKADELPHIA    CLOUDY    42  41  97 CALM      30.29R
CAMDEN         CLOUDY    41  37  87 CALM      30.29R FOG
TEXARKANA      CLOUDY    42  40  92 CALM      30.27R FOG
EL DORADO      CLOUDY    41  38  89 NE7       30.28R FOG
DE QUEEN       CLOUDY    44  41  89 E5        30.26R FOG
$$

ARZ056-057-069-201600-
SOUTHEAST ARKANSAS

CITY           SKY/WX    TMP DP  RH WIND       PRES   REMARKS
PINE BLUFF     CLOUDY    41  36  82 NE5       30.29R
STUTTGART      CLOUDY    41  36  81 N6        30.29R
MONTICELLO     SUNNY     41  37  86 E7        30.27R

$$




USA.gov is the U.S. government's official web portal to all federal, state and local government web resources and services.